Miscellaneous Local Product
Issued by NWS North Platte, NE

Home | Current Version | Previous Version | Text Only | Print | Product List | Glossary On
Versions: 1 2 3 4 5 6 7 8 9 10 11 12 13 14 15 16 17 18 19 20 21 22 23 24 25 26 27 28 29 30 31 32 33 34 35 36 37 38 39 40 41 42 43 44 45 46 47 48 49 50
255
AXUS43 KLBF 190110
MISLBF


WESTERN AND NORTH CENTRAL NEBRASKA HOURLY WEATHER ROUNDUP
NATIONAL WEATHER SERVICE NORTH PLATTE NE
700 PM CST WED JAN 18 2017

NOTE: "FAIR" INDICATES FEW OR NO CLOUDS BELOW 12,000 FEET WITH NO
SIGNIFICANT WEATHER AND/OR OBSTRUCTIONS TO VISIBILITY.

NOTE: STATIONS NOT REPORTING VARIABLES SUCH AS SKY/WEATHER OR
PRESSURE ARE PROVIDED BY RAWS AND APRS NETWORKS AND ARE NOT UNDER
NATIONAL WEATHER SERVICE QUALITY CONTROL.

...OBSERVATIONS IN AND NEAR THE EASTERN PANHANDLE OF NEBRASKA...

CITY           SKY/WX    TMP DP  RH WIND       PRES   REMARKS
PINE RIDGE     CLOUDY    37  28  70 W5        29.66F WCI  33
CHADRON        CLOUDY    30  23  75 SW7       29.67S WCI  23
ALLIANCE       CLOUDY    28  21  75 S12       29.70F WCI  18
SIDNEY         CLOUDY    32  26  78 SW10      29.74F WCI  24
CRESCENT LAKE    N/A     36  28  73 SE3         N/A
$$

...OBSERVATIONS IN NORTHERN NEBRASKA AND FAR SOUTHERN SOUTH DAKOTA...

CITY           SKY/WX    TMP DP  RH WIND       PRES   REMARKS
WINNER         FAIR      46  24  42 S12       29.68F
VALENTINE      CLOUDY    42  22  44 SW13      29.69F
THEDFORD       CLOUDY    39  29  67 S6        29.75S WCI  35
AINSWORTH      CLEAR     39  28  63 S12       29.71F WCI  32
O`NEILL        CLEAR     39  35  85 S12       29.76S WCI  31
ORD            CLOUDY    34  30  85 S3        29.80F
BROKEN BOW     PTCLDY    34  32  92 S3        29.79F
VALENTINE NWR    N/A     39  23  53 S6G14       N/A  WCI  35
BUTTE            N/A     42  32  68 S8          N/A
HALSEY           N/A     43  28  54 S5G13       N/A
SARGENT          N/A     36  30  79 CALM        N/A
CHAMBERS         N/A     37  33  85 S3          N/A
EWING            N/A     39  35  87 S7          N/A  WCI  34
$$

...OBSERVATIONS IN SOUTHWEST NEBRASKA AND FAR NORTHEAST COLORADO...

CITY           SKY/WX    TMP DP  RH WIND       PRES   REMARKS
HOLYOKE        FAIR      34  30  86 S8        29.76F WCI  27
IMPERIAL       CLEAR     35  29  78 S6        29.77F WCI  30
OGALLALA       CLEAR     38  31  77 CALM      29.76F
NORTH PLATTE   CLEAR     32  28  85 SE6       29.78F WCI  26
MCCOOK         CLEAR     39  35  86 S6        29.80F WCI  35
LEXINGTON      CLOUDY    42  36  79 S9        29.80F
STAPLETON        N/A     34  30  85 CALM        N/A
GOTHENBURG       N/A     42  34  72 CALM        N/A
CALLAWAY         N/A     33  30  90 S6          N/A  WCI  27
$$

...OBSERVATIONS IN CENTRAL LINCOLN COUNTY AREA...

CITY           SKY/WX    TMP DP  RH WIND       PRES   REMARKS
N.P. AIRPORT   CLEAR     32  28  85 SE6       29.78F WCI  26
N.P. DOWNTOWN    N/A     36  31  82 CALM        N/A
N.P. SOUTHEAST   N/A     36  32  84 CALM        N/A
N.P. HILLCREST   N/A     36  31  82 CALM        N/A
$$

...SOME OBSERVATIONS FROM AROUND THE REGION...

CITY           SKY/WX    TMP DP  RH WIND       PRES   REMARKS
LARAMIE        CLOUDY    21  15  78 NE10      29.83S WCI  10
CHEYENNE       CLOUDY    38  17  42 CALM      29.76S
DENVER         CLOUDY    41  21  44 SE7       29.75S
AKRON          CLOUDY    36  21  54 S9        29.75F WCI  29
SCOTTSBLUFF    CLOUDY    38  26  62 CALM      29.72S
RAPID CITY     CLOUDY    28  22  78 CALM      29.61F
BISMARCK       CLOUDY    27  22  81 CALM      29.65F
PIERRE         CLOUDY    22  18  85 NE6       29.68S WCI  14
SIOUX FALLS    CLEAR     41  38  89 S12       29.79F
OMAHA          CLEAR     44  36  73 S12       29.90S
GRAND ISLAND   CLOUDY    39  38  96 S9        29.84S WCI  33
KANSAS CITY    CLEAR     37  32  82 S8        29.99S WCI  31
WICHITA        PTCLDY    45  38  76 S3        29.93S
OKLAHOMA CITY  CLOUDY    50  44  80 S8        29.96R
DALLAS         CLOUDY    53  50  89 CALM      29.98S
AMARILLO       CLEAR     47  38  71 S10       29.87S
DODGE CITY     CLOUDY    47  41  80 SE12      29.84F
HAYS           CLEAR     42  39  89 SE10      29.86S
GOODLAND       CLOUDY    39  34  82 S12       29.78F WCI  32
$$




USA.gov is the U.S. government's official web portal to all federal, state and local government web resources and services.